Location: Fort Wayne
(41.1310°N, 85.1290°W)
Time: 18:31:51
(UTC-04:00)

BREEZE-M DEB (TANK) - Visible Passes

Search period start: 01 April 2015 00:00
Search period end: 11 April 2015 00:00
Orbit: 289 x 13554 km, 49.6° (Epoch: 30 March)

Date Brightness Start Highest point End Pass type
(mag) Time Alt. Az. Time Alt. Az. Time Alt. Az.
02 Apr 9.1 04:39:31 10° SSE 05:16:54 20° SE 05:42:00 10° E visible
03 Apr 8.3 05:52:06 10° S 06:57:55 40° SE 07:16:40 10° ENE visible
05 Apr 8.9 04:33:36 10° SSE 05:24:06 26° SE 05:48:54 10° ENE visible
06 Apr 8.1 05:52:28 10° S 07:03:49 47° SE 07:21:35 10° ENE visible
07 Apr 9.0 03:35:22 10° SE 03:46:26 12° SE 04:13:08 10° E visible
08 Apr 8.7 04:29:19 10° SSE 05:30:15 32° SE 05:54:18 10° ENE visible
09 Apr 7.8 05:53:14 10° SSW 07:08:50 54° SE 07:25:41 10° ENE visible
10 Apr 8.9 03:21:53 10° SE 03:53:10 18° SE 04:22:35 10° E visible
